Flag for Denmark Weather past 2 weeks in Kolding, Denmark

Now
55 °F

Cool.


Feels Like: 51 °F
Forecast: 47 / 65 °F
Wind: 17 mph from West

Location: Vamdrup

Current Time: Jul 31, 2015 at 10:08:01 AM

Latest Report: Jul 31, 2015 at 9:20 AM


Visibility: N/A

Pressure: 29.95 "Hg

Humidity: 72%

Dew point: 46 °F

Location of KoldingLocation

Historic Weather in Kolding — Graph

°F

Kolding temperature yesterday

Maximum temperature yesterday: 63 °F (at 2:50 PM)
Minimum temperature yesterday: 52 °F (at 12:20 AM)
Average temperature yesterday: 57 °F

Past Weeks' High & Low Weather Summary

 TemperatureHumidityPressure
High72 °F (Jul 22, 1:20 PM)100% (Jul 18, 3:20 AM)30.12 "Hg (Jul 18, 3:20 AM)
Low39 °F (Jul 17, 5:20 AM)31% (Jul 24, 4:50 PM)29.36 "Hg (Jul 28, 2:50 AM)
Average59 °F80%29.76 "Hg
* Reported Jul 16 8:20 AM — Jul 31 8:50 AM, Kolding, Weather by CustomWeather, © 2015

Note: Actual official high and low records may vary slightly from our data, if they occured in-between our weather recording intervals... More about our weather records

Advertising

Kolding weather history for previous 24 hours

 ConditionsComfort  
Time TempWeatherWind HumidityBarometerVisibility
8:50 AM
Fri, Jul 31
55 °FCool.15 mph67%29.95 "HgN/A
8:20 AM54 °FCool.12 mph72%29.95 "HgN/A
7:50 AM54 °FCool.12 mph72%29.95 "HgN/A
7:20 AM54 °FCool.13 mph77%29.92 "HgN/A
6:50 AM52 °FCool.17 mph82%29.92 "HgN/A
6:20 AM52 °FCool.15 mph82%29.92 "HgN/A
5:50 AM52 °FCool.13 mph82%29.92 "HgN/A
5:20 AM52 °FCool.13 mph82%29.92 "HgN/A
4:50 AM52 °FCool.14 mph82%29.89 "HgN/A
4:20 AM52 °FCool.13 mph82%29.89 "HgN/A
3:50 AM52 °FCool.12 mph82%29.89 "HgN/A
3:20 AM52 °FCool.12 mph82%29.89 "HgN/A
2:50 AM52 °FCool.13 mph88%29.89 "HgN/A
2:20 AM54 °FCool.12 mph82%29.89 "HgN/A
1:50 AM54 °FCool.13 mph82%29.86 "HgN/A
1:20 AM54 °FCool.14 mph88%29.86 "HgN/A
12:50 AM54 °FCool.12 mph88%29.86 "HgN/A
12:20 AM54 °FCool.13 mph88%29.86 "HgN/A
11:20 PM
Thu, Jul 30
54 °FCool.13 mph94%29.83 "HgN/A
10:50 PM54 °FCool.14 mph94%29.83 "HgN/A
10:20 PM54 °FCool.17 mph94%29.83 "HgN/A
9:50 PM54 °FCool.16 mph94%29.83 "HgN/A
9:20 PM54 °FCool.17 mph94%29.80 "HgN/A
8:50 PM54 °FCool.15 mph94%29.80 "HgN/A
8:20 PM55 °FCool.18 mph94%29.77 "HgN/A
7:50 PM55 °FCool.16 mph94%29.77 "HgN/A
7:20 PM55 °FCool.18 mph94%29.74 "HgN/A
6:50 PM57 °FCool.17 mph94%29.74 "HgN/A
6:20 PM57 °FBroken clouds.17 mph94%29.74 "Hg5 mi
5:50 PM59 °FBroken clouds.21 mph88%29.71 "Hg6 mi
4:50 PM59 °FLight rain. Broken clouds.16 mph94%29.68 "Hg6 mi
4:20 PM61 °FBroken clouds.16 mph88%29.68 "Hg6 mi
3:50 PM61 °FSprinkles. Broken clouds.16 mph88%29.68 "Hg6 mi
2:50 PM63 °FBroken clouds.13 mph83%29.65 "Hg6 mi
2:20 PM61 °FBroken clouds.14 mph88%29.65 "Hg6 mi
1:50 PM61 °FBroken clouds.15 mph88%29.65 "HgN/A
1:20 PM61 °FBroken clouds.13 mph88%29.62 "HgN/A
12:50 PM61 °FSprinkles. Broken clouds.12 mph88%29.62 "Hg6 mi
12:20 PM59 °FSprinkles. Broken clouds.14 mph94%29.62 "Hg4 mi
11:50 AM61 °FSprinkles. Broken clouds.13 mph88%29.62 "Hg5 mi
10:50 AM61 °FSprinkles. Partly sunny.12 mph88%29.59 "HgN/A
10:20 AM61 °FBroken clouds.12 mph88%29.56 "HgN/A
Weather by CustomWeather, © 2015

See weather overviewHow to use our weather pages